Location: Devore Heights
(34.2372°N, 117.4156°W)
Time: 01:05:32
(UTC+00:00)

Altair - Pass Details

Date: 18 September 2024
Orbit: 1501 x 1682 km, 47.2° (Epoch: 09 October)

Event Time Altitude Azimuth Distance (km) Brightness Sun altitude
Exits shadow 12:25:33 - 294° (WNW) 3,988 9.2 -15.1°
Reaches altitude 10° 12:25:48 10° 295° (WNW) 3,922 9.2 -15.1°
Maximum altitude 12:35:05 39° 1° (N) 2,349 8.6 -13.2°
Drops below altitude 10° 12:44:24 10° 68° (ENE) 3,935 11.1 -11.3°
Sets 12:47:55 0° 76° (ENE) 4,911 12.4 -10.6°
